Change the Weather History Date:

Friday, October 26, 2012

  Actual Average (KSTC) Record (KSTC)
Temperature  
Mean Temperature 34 °F 42 °F  
Max Temperature 38 °F 52 °F 80 °F (1989)
Min Temperature 31 °F 32 °F 13 °F (1936)
Degree Days  
Heating Degree Days 30 23  
Month to date heating degree days 475  
Since 1 July heating degree days 761  
Cooling Degree Days 0 0  
Month to date cooling degree days 0  
Year to date cooling degree days 463  
Moisture  
Dew Point 25 °F    
Average Humidity 69    
Maximum Humidity 83    
Minimum Humidity 52    
Precipitation  
Precipitation 0.00 in 0.07 in 1.44 in (2010)
Month to date precipitation 2.19  
Year to date precipitation 25.23  
Snow  
Snow 0.00 in 0.00 in 2.70 in (1959)
Month to date snowfall 0.5  
Since 1 July snowfall 0.5  
Since 1 September snowfall 0.5  
Snow Depth -    
Sea Level Pressure  
Sea Level Pressure 30.30 in    
Wind  
Wind Speed 11 mph (West)    
Max Wind Speed 17 mph    
Max Gust Speed 24 mph    
Visibility 10 miles    
Events      
T = Trace of Precipitation, MM = Missing Value Source: NWS Daily Summary

Daily Weather History Graph

Daily Weather History Graph

Search for Another Location

Airport or City:

Trip Planner

Search our weather history database for the weather conditions in past years. The results will help you decide how hot, cold, wet, or windy it might be!

Date:

Astronomy

Oct. 26, 2012 Rise Set
Actual Time 7:47 AM CDT 6:11 PM CDT
Civil Twilight 7:16 AM CDT 6:42 PM CDT
Nautical Twilight 6:42 AM CDT 7:16 PM CDT
Astronomical Twilight 6:08 AM CDT 7:50 PM CDT
Moon 4:33 PM CDT (10/26) 4:37 AM CDT (10/26)
Length of Visible Light 11h 25m
Length of Day
10h 24m
Waxing Gibbous, 91% of the Moon is Illuminated
Oct 26
Waxing Gibbous
Oct 29
Full
Nov 6
Last Quarter
Nov 13
New
Nov 20
First Quarter

Hourly Weather History & Observations

Time (CDT) Temp. Windchill Dew Point Humidity Pressure Visibility Wind Dir Wind Speed Gust Speed Precip Events Conditions
12:34 AM 35.2 °F 26.2 °F 26.4 °F 70% 30.17 in 10.0 mi West 13.8 mph - N/A   Mostly Cloudy
12:54 AM 34.7 °F 26.9 °F 26.4 °F 72% 30.17 in 10.0 mi West 10.4 mph 17.3 mph N/A   Scattered Clouds
1:14 AM 34.5 °F 27.3 °F 26.6 °F 73% 30.17 in 10.0 mi West 9.2 mph - N/A   Clear
1:34 AM 34.0 °F 26.6 °F 26.6 °F 74% 30.18 in 10.0 mi West 9.2 mph 16.1 mph N/A   Clear
1:55 AM 34.0 °F 26.0 °F 27.0 °F 75% 30.18 in 10.0 mi West 10.4 mph 18.4 mph N/A   Clear
2:14 AM 33.8 °F 24.3 °F 27.1 °F 77% 30.19 in 10.0 mi West 13.8 mph - N/A   Scattered Clouds
2:34 AM 33.8 °F 25.3 °F 27.0 °F 76% 30.19 in 10.0 mi West 11.5 mph 18.4 mph N/A   Scattered Clouds
2:55 AM 33.8 °F 24.8 °F 26.6 °F 75% 30.20 in 10.0 mi West 12.7 mph - N/A   Scattered Clouds
3:34 AM 32.9 °F 24.1 °F 27.0 °F 79% 30.20 in 10.0 mi West 11.5 mph 18.4 mph N/A   Clear
3:54 AM 32.9 °F 24.1 °F 27.0 °F 79% 30.20 in 10.0 mi West 11.5 mph 16.1 mph N/A   Clear
4:14 AM 32.5 °F 24.2 °F 26.6 °F 79% 30.21 in 10.0 mi West 10.4 mph 17.3 mph N/A   Clear
4:34 AM 32.2 °F 24.4 °F 26.8 °F 80% 30.21 in 10.0 mi West 9.2 mph - N/A   Clear
4:54 AM 32.0 °F 23.6 °F 26.6 °F 80% 30.21 in 10.0 mi West 10.4 mph - N/A   Clear
5:34 AM 32.0 °F 24.8 °F 26.6 °F 80% 30.23 in 10.0 mi West 8.1 mph - N/A   Clear
5:54 AM 32.0 °F 25.6 °F 26.6 °F 80% 30.24 in 10.0 mi West 6.9 mph - N/A   Clear
6:14 AM 31.8 °F 25.4 °F 27.1 °F 83% 30.25 in 10.0 mi West 6.9 mph - N/A   Mostly Cloudy
6:34 AM 32.5 °F 24.8 °F 27.1 °F 80% 30.26 in 10.0 mi West 9.2 mph - N/A   Overcast
6:54 AM 33.1 °F 24.9 °F 27.3 °F 79% 30.27 in 10.0 mi West 10.4 mph 17.3 mph N/A   Overcast
7:14 AM 33.4 °F 25.9 °F 27.1 °F 78% 30.27 in 10.0 mi West 9.2 mph - N/A   Overcast
7:34 AM 34.3 °F 26.5 °F 25.9 °F 71% 30.28 in 10.0 mi West 10.4 mph 19.6 mph N/A   Overcast
7:54 AM 34.7 °F 25.5 °F 24.8 °F 67% 30.29 in 10.0 mi West 13.8 mph 19.6 mph N/A   Overcast
8:14 AM 34.7 °F 26.9 °F 24.6 °F 67% 30.30 in 10.0 mi West 10.4 mph 19.6 mph N/A   Overcast
8:34 AM 34.7 °F 25.5 °F 24.6 °F 67% 30.31 in 10.0 mi West 13.8 mph 19.6 mph N/A   Overcast
8:54 AM 34.7 °F 25.9 °F 24.6 °F 67% 30.32 in 10.0 mi West 12.7 mph 18.4 mph N/A   Overcast
9:14 AM 34.9 °F 26.2 °F 24.4 °F 66% 30.32 in 10.0 mi West 12.7 mph 17.3 mph N/A   Overcast
9:34 AM 35.1 °F 26.4 °F 24.6 °F 66% 30.33 in 10.0 mi West 12.7 mph 18.4 mph N/A   Overcast
9:54 AM 35.4 °F 26.0 °F 24.3 °F 64% 30.34 in 10.0 mi West 15.0 mph 21.9 mph N/A   Overcast
10:14 AM 35.6 °F 27.5 °F 23.9 °F 62% 30.34 in 10.0 mi WNW 11.5 mph 21.9 mph N/A   Overcast
10:34 AM 35.6 °F 27.1 °F 24.1 °F 63% 30.35 in 10.0 mi West 12.7 mph 17.3 mph N/A   Overcast
10:54 AM 35.6 °F 26.2 °F 23.9 °F 62% 30.35 in 10.0 mi West 15.0 mph 24.2 mph N/A   Overcast
11:14 AM 35.6 °F 28.0 °F 24.1 °F 63% 30.36 in 10.0 mi WNW 10.4 mph 19.6 mph N/A   Overcast
11:34 AM 35.6 °F 26.2 °F 24.1 °F 63% 30.36 in 10.0 mi West 15.0 mph 20.7 mph N/A   Overcast
11:54 AM 35.8 °F 27.8 °F 23.4 °F 61% 30.36 in 10.0 mi West 11.5 mph 24.2 mph N/A   Overcast
12:14 PM 36.5 °F 27.8 °F 22.8 °F 58% 30.36 in 10.0 mi WNW 13.8 mph 20.7 mph N/A   Overcast
12:34 PM 36.5 °F 28.2 °F 22.3 °F 56% 30.36 in 10.0 mi West 12.7 mph 21.9 mph N/A   Overcast
12:54 PM 36.5 °F 26.7 °F 21.9 °F 56% 30.35 in 10.0 mi West 17.3 mph 23.0 mph N/A   Overcast
1:15 PM 36.5 °F 27.8 °F 22.6 °F 57% 30.35 in 10.0 mi West 13.8 mph 20.7 mph N/A   Overcast
1:34 PM 36.5 °F 28.7 °F 23.2 °F 59% 30.34 in 10.0 mi WNW 11.5 mph 16.1 mph N/A   Overcast
1:54 PM 37.4 °F 30.3 °F 23.9 °F 58% 30.34 in 10.0 mi West 10.4 mph - N/A   Overcast
2:15 PM 36.9 °F 28.7 °F 23.9 °F 59% 30.34 in 10.0 mi WNW 12.7 mph 20.7 mph N/A   Overcast
2:35 PM 37.8 °F 29.8 °F 22.1 °F 53% 30.33 in 10.0 mi West 12.7 mph 19.6 mph N/A   Overcast
2:54 PM 38.3 °F 30.1 °F 22.1 °F 52% 30.33 in 10.0 mi West 13.8 mph - N/A   Overcast
3:14 PM 37.8 °F 29.4 °F 22.8 °F 55% 30.33 in 10.0 mi West 13.8 mph 19.6 mph N/A   Overcast
3:34 PM 37.6 °F 29.6 °F 23.2 °F 56% 30.33 in 10.0 mi West 12.7 mph - N/A   Overcast
3:54 PM 37.6 °F 30.5 °F 23.5 °F 57% 30.33 in 10.0 mi West 10.4 mph 17.3 mph N/A   Overcast
4:14 PM 37.4 °F 31.4 °F 23.5 °F 57% 30.33 in 10.0 mi West 8.1 mph - N/A   Overcast
4:34 PM 37.2 °F 31.9 °F 24.4 °F 60% 30.33 in 10.0 mi WNW 6.9 mph - N/A   Overcast
4:54 PM 36.7 °F 29.9 °F 25.0 °F 63% 30.33 in 10.0 mi West 9.2 mph - N/A   Overcast
5:14 PM 36.5 °F 29.2 °F 24.6 °F 62% 30.33 in 10.0 mi West 10.4 mph - N/A   Overcast
5:34 PM 36.5 °F 29.2 °F 24.3 °F 61% 30.33 in 10.0 mi West 10.4 mph - N/A   Overcast
5:54 PM 36.1 °F 29.9 °F 24.1 °F 62% 30.33 in 10.0 mi West 8.1 mph - N/A   Overcast
6:14 PM 36.0 °F 29.6 °F 24.6 °F 63% 30.33 in 10.0 mi West 8.1 mph - N/A   Overcast
6:34 PM 35.8 °F 28.3 °F 24.8 °F 64% 30.34 in 10.0 mi West 10.4 mph - N/A   Overcast
6:54 PM 35.6 °F 28.0 °F 24.8 °F 65% 30.34 in 10.0 mi West 10.4 mph - N/A   Overcast
7:14 PM 35.6 °F 29.2 °F 24.6 °F 64% 30.34 in 10.0 mi West 8.1 mph - N/A   Overcast
7:35 PM 35.2 °F 28.8 °F 24.8 °F 66% 30.34 in 10.0 mi West 8.1 mph - N/A   Overcast
7:54 PM 34.2 °F 28.2 °F 24.6 °F 68% 30.34 in 10.0 mi West 6.9 mph - N/A   Scattered Clouds
8:14 PM 33.3 °F 27.9 °F 25.0 °F 72% 30.34 in 10.0 mi WSW 5.8 mph - N/A   Mostly Cloudy
8:35 PM 32.9 °F 28.5 °F 25.2 °F 73% 30.34 in 10.0 mi WSW 4.6 mph - N/A   Mostly Cloudy
8:54 PM 32.0 °F 27.5 °F 25.9 °F 78% 30.34 in 10.0 mi WSW 4.6 mph - N/A   Mostly Cloudy
9:15 PM 31.8 °F 27.3 °F 26.1 °F 79% 30.34 in 10.0 mi SW 4.6 mph - N/A   Scattered Clouds
9:34 PM 31.6 °F 27.0 °F 26.2 °F 80% 30.34 in 10.0 mi WSW 4.6 mph - N/A   Scattered Clouds
9:54 PM 32.0 °F 28.7 °F 26.6 °F 80% 30.34 in 10.0 mi WSW 3.5 mph - N/A   Overcast
10:34 PM 31.5 °F 26.8 °F 26.6 °F 82% 30.34 in 10.0 mi WSW 4.6 mph - N/A   Mostly Cloudy
10:54 PM 32.0 °F 27.5 °F 27.3 °F 83% 30.34 in 10.0 mi WSW 4.6 mph - N/A   Overcast
11:14 PM 32.0 °F 27.5 °F 27.5 °F 83% 30.34 in 10.0 mi WSW 4.6 mph - N/A   Overcast
11:34 PM 32.0 °F 27.5 °F 27.5 °F 83% 30.34 in 10.0 mi WSW 4.6 mph - N/A   Overcast
11:54 PM 32.0 °F 27.5 °F 27.5 °F 83% 30.33 in 10.0 mi WSW 4.6 mph - N/A   Overcast